[[{"header":{"parameterUnit":"m.s-1","parameterCategory":1,"la1":30.2991,"la2":30.254,"lo1":-89.0895,"lo2":-89.0444,"dy":0.0017,"dx":0.0017,"nx":28,"ny":28,"refTime":"2026-02-02T09:00:00:Z","depth":0,"parameterNumber":2,"parameterNumberName":"U-component_of_WINDS"},"data":[0,0,0,0,0,0,0,0,0,0,0,0,0,0,0,0,0,0,0,0,0,0,0,0,0,0,0,0,0,0,0,0,0,0,0,0,0,0,0,0,0,0,0,0,0,0,0,0,0,0,0,0,0,0,0,0,0,0,2.1494,2.1495,0,2.1545,2.1545,2.1546,2.1475,2.1472,2.147,2.1467,2.1518,2.1521,2.1525,0,0,0,0,0,0,0,0,0,0,0,0,0,2.1337,2.134,2.1494,2.1495,2.1495,2.1544,2.1545,2.1546,2.1475,2.1472,2.1469,2.1466,2.1517,2.1521,2.1525,0,0,0,0,0,0,0,0,0,0,0,0,0,2.1398,2.1341,2.1494,2.1466,2.1464,2.1544,2.1545,2.1546,2.1476,2.1472,2.1468,2.1465,2.1515,2.152,2.1526,2.1635,0,0,2.1543,2.1545,0,0,0,0,0,0,0,0,2.1395,2.1404,2.147,2.1468,2.1466,2.15,2.1508,2.1576,2.1477,2.1471,2.1467,2.1463,2.1515,2.152,2.1538,2.1638,2.164,2.1543,2.1547,2.1549,2.1551,0,0,0,0,0,0,0,2.139,2.1401,2.1514,2.1471,2.1469,2.1451,2.1456,2.1521,2.1514,2.1472,2.1467,2.1474,2.1513,2.1533,2.1538,2.1641,2.1543,2.1548,2.1551,2.1554,2.1836,2.184,0,0,0,0,0,0,2.139,2.1398,2.1512,2.1515,2.142,2.1457,2.1462,2.1493,2.1513,2.1512,2.1477,2.147,2.1525,2.1532,2.154,2.1671,2.1549,2.1554,2.1557,2.1831,2.1836,2.1841,0,0,0,0,0,0,2.1386,2.14,2.151,2.1456,2.1468,2.1464,2.1499,2.1496,2.1515,2.1517,2.1515,2.1498,2.1522,2.1532,2.1613,2.1672,2.1557,2.1562,2.1826,2.1833,2.1839,2.1934,0,0,0,0,0,0,2.1382,2.14,2.1441,2.1457,2.1471,2.1583,2.1502,2.1499,2.1525,2.1517,2.1536,2.1536,2.152,2.1605,2.1618,2.1678,2.1566,2.1821,2.1829,2.1837,2.1926,2.1943,2.1958,0,0,0,0,0,2.1377,2.1465,2.1444,2.1458,2.1523,2.1586,2.1595,2.1575,2.153,2.1572,2.1573,2.1535,2.1663,2.1614,2.1628,2.169,2.1817,2.1827,2.1836,2.1919,2.194,2.1957,0,0,0,0,0,0,2.1455,2.1467,2.1443,2.1539,2.1563,2.1574,2.1626,2.1598,2.1634,2.1625,2.1598,2.1604,2.1691,2.1698,2.1643,2.1798,2.1733,2.1746,2.1791,2.1811,2.1826,2.1823,2.157,0,0,0,0,0,2.1484,2.1535,2.1541,2.1626,2.1639,2.1631,2.1658,2.1641,2.1664,2.1673,2.168,2.1704,2.1749,2.178,2.1822,2.1926,2.193,2.1976,2.1992,2.2005,2.2017,2.2075,2.2096,2.1872,2.1872,2.1872,0,0,2.1543,2.1556,2.1589,2.1642,2.1658,2.1712,2.164,2.1698,2.1738,2.1682,2.1759,2.1766,2.179,2.1884,2.1926,2.1893,2.2079,2.2017,2.2027,2.2032,2.2087,2.2108,2.2127,2.1878,2.1877,2.1876,0,0,2.1679,2.1693,2.1766,2.1784,2.181,2.1805,2.1822,2.1839,2.1842,2.1919,2.1879,2.1925,2.2004,2.2024,2.2044,2.2191,2.2158,2.2205,2.2289,2.2346,2.2363,2.2379,2.2433,2.2453,2.2216,2.2216,2.2217,0,2.175,2.1829,2.1807,2.187,2.1895,2.1848,2.1922,2.194,2.1978,2.1997,2.196,2.2059,2.2072,2.2171,2.2207,2.2225,2.2245,2.2203,2.2363,2.2378,2.2392,2.2444,2.2464,2.2222,2.2221,2.2221,2.222,0,2.1916,2.1972,2.2027,2.2067,2.2098,2.2166,2.2155,2.2189,2.217,2.2169,2.2249,2.2263,2.2309,2.233,2.2311,2.2428,2.2407,2.2367,2.2301,2.242,2.2468,2.2487,2.223,2.2228,2.2227,2.2225,0,0,2.2103,2.2131,2.2152,2.217,2.2196,2.2239,2.2305,2.235,2.2381,2.2409,2.2465,2.2534,2.2498,2.2521,2.2504,2.2554,2.2672,2.2508,2.2508,2.254,2.2804,2.2835,2.2859,2.265,2.2653,2.2656,2.2802,0,2.2241,2.2357,2.2339,2.2451,2.2504,2.246,2.2518,2.2541,2.2542,2.2586,2.2586,2.2637,2.2583,2.2598,2.2645,2.2648,2.2725,2.2637,2.2703,2.2706,2.27,2.2883,2.2916,2.3054,2.2821,2.2824,2.2826,0,2.2417,2.2453,2.2571,2.2591,2.2612,2.2665,2.2706,2.2749,2.2774,2.2771,2.2799,2.2773,2.2841,2.2773,2.2866,2.2807,2.2833,2.2838,2.2843,2.285,2.2775,2.2897,2.3096,2.3118,2.2855,2.2853,2.2851,0,2.2545,2.2623,2.2704,2.2721,2.2745,2.2784,2.2796,2.2817,2.2846,2.2882,2.2901,2.2944,2.2968,2.3002,2.2989,2.294,2.3086,2.3016,2.3087,2.3087,2.312,2.3119,2.3329,2.3134,2.3134,2.3133,2.3133,0,2.2701,2.2776,2.2762,2.2812,2.2895,2.2874,2.2956,2.2963,2.2983,2.3034,2.2997,2.3046,2.3026,2.3073,2.3063,2.3144,2.3154,2.3155,2.3152,2.3159,2.316,2.3177,2.3168,2.3139,2.3138,2.3137,2.3136,0,2.2859,2.2852,2.2938,2.2955,2.2961,2.3021,2.3036,2.3083,2.3082,2.3147,2.3161,2.3159,2.3213,2.3204,2.3263,2.3257,2.3358,2.3342,2.335,2.3347,2.3419,2.3414,2.365,2.3681,2.3464,2.3466,2.3467,0,2.296,2.3017,2.304,2.3072,2.3088,2.3139,2.317,2.3152,2.3184,2.3219,2.3263,2.3314,2.3354,2.3443,2.3447,2.3493,2.3479,2.3559,2.3486,2.3493,2.3483,2.3481,2.3488,2.3574,2.3576,2.3578,2.358,0,2.3142,2.3137,2.3181,2.3226,2.3263,2.3297,2.3328,2.3356,2.3341,2.338,2.3436,2.3467,2.3529,2.3581,2.3625,2.3637,2.3607,2.3603,2.3622,2.3631,2.3635,2.3636,2.3392,2.3598,2.3596,2.3595,2.3594,2.3593,2.3276,2.3325,2.335,2.3402,2.3423,2.3453,2.35,2.3504,2.3551,2.3601,2.3587,2.3651,2.3676,2.3732,2.3749,2.3799,2.377,2.3797,2.3804,2.3812,2.3822,2.3625,2.3807,2.3806,2.3806,2.3805,2.3805,0,2.3458,2.3472,2.352,2.3565,2.3606,2.3574,2.3607,2.3644,2.3701,2.3727,2.3768,2.3834,2.3884,2.3893,2.3941,2.398,2.3968,2.3994,2.3992,2.3996,2.3844,2.3824,2.4003,2.4003,2.4003,2.4003,2.4003,2.4003,2.3558,2.364,2.3638,2.3731,2.3745,2.3808,2.383,2.3857,2.3879,2.3954,2.3996,2.4001,2.4021,2.4071,2.4117,2.4118,2.4138,2.417,2.4167,2.4025,2.4006,2.3987,2.3968,2.4174,2.4175,2.4314,2.4315,2.4316]},{"header":{"parameterUnit":"m.s-1","parameterCategory":1,"la1":30.2991,"la2":30.254,"lo1":-89.0895,"lo2":-89.0444,"dy":0.0017,"dx":0.0017,"nx":28,"ny":28,"refTime":"2026-02-02T09:00:00:Z","depth":0,"parameterNumber":3,"parameterNumberName":"V-component_of_WINDS"},"data":[0,0,0,0,0,0,0,0,0,0,0,0,0,0,0,0,0,0,0,0,0,0,0,0,0,0,0,0,0,0,0,0,0,0,0,0,0,0,0,0,0,0,0,0,0,0,0,0,0,0,0,0,0,0,0,0,0,0,-1.3009,-1.301,0,-1.308,-1.308,-1.3081,-1.3084,-1.3083,-1.3083,-1.3082,-1.3155,-1.3158,-1.316,0,0,0,0,0,0,0,0,0,0,0,0,0,-1.288,-1.2882,-1.3009,-1.301,-1.3011,-1.3079,-1.308,-1.3081,-1.3084,-1.3083,-1.3082,-1.3081,-1.3154,-1.3157,-1.3161,0,0,0,0,0,0,0,0,0,0,0,0,0,-1.2941,-1.2883,-1.3009,-1.3021,-1.3023,-1.3079,-1.308,-1.3082,-1.3085,-1.3083,-1.3082,-1.3081,-1.3153,-1.3157,-1.3161,-1.3211,0,0,-1.3174,-1.3175,0,0,0,0,0,0,0,0,-1.2938,-1.2946,-1.3018,-1.302,-1.3022,-1.3072,-1.3062,-1.3125,-1.3085,-1.3061,-1.3082,-1.308,-1.3128,-1.3134,-1.315,-1.3215,-1.3218,-1.3174,-1.3176,-1.3178,-1.3179,0,0,0,0,0,0,0,-1.2934,-1.2943,-1.3037,-1.3019,-1.3022,-1.3023,-1.303,-1.3074,-1.3101,-1.3063,-1.3063,-1.3072,-1.3129,-1.3146,-1.3152,-1.3219,-1.3174,-1.3177,-1.318,-1.3182,-1.3328,-1.333,0,0,0,0,0,0,-1.2927,-1.294,-1.3035,-1.3039,-1.2976,-1.3026,-1.3035,-1.3057,-1.31,-1.3106,-1.3073,-1.3072,-1.314,-1.3147,-1.3155,-1.3216,-1.3178,-1.3182,-1.3184,-1.3327,-1.3329,-1.333,0,0,0,0,0,0,-1.2924,-1.2935,-1.3032,-1.299,-1.3002,-1.303,-1.3055,-1.3059,-1.3076,-1.3108,-1.3113,-1.3085,-1.3139,-1.3149,-1.3197,-1.3219,-1.3184,-1.3188,-1.3325,-1.3328,-1.333,-1.334,0,0,0,0,0,0,-1.292,-1.2934,-1.2953,-1.299,-1.3004,-1.3073,-1.3057,-1.3062,-1.3083,-1.3082,-1.3121,-1.3126,-1.3139,-1.3191,-1.3201,-1.3224,-1.3191,-1.3323,-1.3326,-1.3329,-1.3338,-1.3342,-1.3346,0,0,0,0,0,-1.2916,-1.2954,-1.2954,-1.2966,-1.3028,-1.3074,-1.3082,-1.3096,-1.3085,-1.3104,-1.3125,-1.3125,-1.3215,-1.3196,-1.3207,-1.3232,-1.3322,-1.3325,-1.3329,-1.3336,-1.3341,-1.3346,0,0,0,0,0,0,-1.2919,-1.2959,-1.296,-1.3011,-1.3039,-1.3074,-1.3099,-1.3102,-1.3134,-1.3132,-1.3149,-1.3158,-1.3205,-1.3224,-1.3202,-1.3283,-1.3267,-1.3273,-1.3269,-1.3274,-1.3278,-1.3272,-1.3194,0,0,0,0,0,-1.2926,-1.2959,-1.2992,-1.3034,-1.3048,-1.3071,-1.3092,-1.31,-1.313,-1.3142,-1.3166,-1.3196,-1.3231,-1.3254,-1.3288,-1.3341,-1.3349,-1.3363,-1.3367,-1.337,-1.3375,-1.3404,-1.341,-1.3341,-1.3341,-1.3341,0,0,-1.294,-1.2965,-1.2985,-1.3035,-1.3058,-1.3092,-1.3081,-1.3118,-1.3144,-1.3148,-1.3195,-1.3213,-1.3248,-1.3298,-1.3322,-1.3315,-1.3396,-1.3374,-1.3377,-1.338,-1.3408,-1.3415,-1.342,-1.3343,-1.3343,-1.3342,0,0,-1.2983,-1.3006,-1.3043,-1.3066,-1.3101,-1.3116,-1.3125,-1.3161,-1.3173,-1.322,-1.3224,-1.3255,-1.3316,-1.334,-1.336,-1.3413,-1.3414,-1.3424,-1.3445,-1.3473,-1.3479,-1.3483,-1.3502,-1.3508,-1.3428,-1.3428,-1.3428,0,-1.2996,-1.3047,-1.3062,-1.3098,-1.312,-1.3125,-1.3163,-1.3185,-1.323,-1.3245,-1.3237,-1.3312,-1.3336,-1.3392,-1.3405,-1.3422,-1.3432,-1.3419,-1.3476,-1.3482,-1.3486,-1.3504,-1.3511,-1.3429,-1.3429,-1.3429,-1.3429,0,-1.3061,-1.3097,-1.3123,-1.3165,-1.319,-1.3227,-1.3248,-1.3271,-1.3278,-1.3295,-1.3343,-1.3371,-1.3411,-1.3425,-1.3433,-1.3483,-1.3478,-1.3473,-1.3458,-1.3494,-1.3511,-1.3518,-1.3431,-1.343,-1.343,-1.343,0,0,-1.3107,-1.3157,-1.3166,-1.3186,-1.3225,-1.3253,-1.3291,-1.3329,-1.3349,-1.338,-1.3412,-1.3463,-1.3459,-1.3482,-1.3492,-1.3517,-1.3557,-1.351,-1.3511,-1.3517,-1.3614,-1.3617,-1.3625,-1.3558,-1.356,-1.3561,-1.3611,0,-1.3154,-1.322,-1.3235,-1.3292,-1.3325,-1.3332,-1.3365,-1.3392,-1.3409,-1.344,-1.3459,-1.3495,-1.3487,-1.3501,-1.3526,-1.3547,-1.3577,-1.3544,-1.3589,-1.359,-1.3579,-1.3634,-1.3637,-1.3682,-1.3618,-1.3619,-1.362,0,-1.3217,-1.3249,-1.3309,-1.3344,-1.3358,-1.3388,-1.3424,-1.3454,-1.3486,-1.3497,-1.3523,-1.353,-1.357,-1.3554,-1.361,-1.3587,-1.3606,-1.362,-1.3622,-1.3626,-1.3606,-1.3638,-1.3697,-1.3704,-1.3631,-1.363,-1.3629,0,-1.3244,-1.3302,-1.3345,-1.3362,-1.3403,-1.3424,-1.3442,-1.3473,-1.3496,-1.3528,-1.3543,-1.358,-1.36,-1.3629,-1.3647,-1.3633,-1.3701,-1.3686,-1.3711,-1.371,-1.3724,-1.3723,-1.3786,-1.3738,-1.3738,-1.3738,-1.3738,0,-1.3294,-1.333,-1.3358,-1.3384,-1.3426,-1.3443,-1.3484,-1.3502,-1.353,-1.3561,-1.3569,-1.3598,-1.362,-1.3652,-1.3667,-1.371,-1.372,-1.3729,-1.3733,-1.3728,-1.3727,-1.3741,-1.3738,-1.374,-1.3739,-1.3739,-1.3739,0,-1.333,-1.335,-1.3397,-1.3433,-1.3443,-1.3472,-1.3503,-1.353,-1.3547,-1.3586,-1.3596,-1.3624,-1.3662,-1.3683,-1.3731,-1.3741,-1.379,-1.3792,-1.3779,-1.378,-1.3803,-1.3801,-1.3877,-1.3888,-1.3833,-1.3834,-1.3834,0,-1.336,-1.3388,-1.3427,-1.3448,-1.3467,-1.35,-1.3523,-1.3541,-1.3565,-1.3604,-1.3626,-1.3665,-1.3697,-1.3758,-1.3783,-1.382,-1.3822,-1.3847,-1.3828,-1.3823,-1.3822,-1.382,-1.3823,-1.385,-1.385,-1.3851,-1.3851,0,-1.3411,-1.3419,-1.3452,-1.3487,-1.3514,-1.3544,-1.3573,-1.359,-1.3613,-1.3639,-1.3678,-1.3703,-1.3752,-1.3791,-1.383,-1.385,-1.3855,-1.3857,-1.3864,-1.386,-1.3851,-1.3855,-1.3787,-1.3855,-1.3854,-1.3854,-1.3854,-1.3854,-1.3445,-1.347,-1.3501,-1.3537,-1.3561,-1.3588,-1.3614,-1.3635,-1.3668,-1.3708,-1.3718,-1.3759,-1.3791,-1.3844,-1.3866,-1.3899,-1.3894,-1.3905,-1.3908,-1.391,-1.3911,-1.3846,-1.3906,-1.3906,-1.3906,-1.3906,-1.3906,0,-1.3496,-1.3516,-1.3549,-1.3589,-1.3617,-1.3619,-1.3651,-1.3675,-1.3711,-1.374,-1.3771,-1.3817,-1.3854,-1.3882,-1.3921,-1.3942,-1.3945,-1.3952,-1.395,-1.3954,-1.3913,-1.3902,-1.3948,-1.3948,-1.3948,-1.3948,-1.3948,-1.3948,-1.3525,-1.3568,-1.358,-1.3635,-1.3656,-1.3696,-1.3714,-1.374,-1.3763,-1.3813,-1.3844,-1.3862,-1.3891,-1.3932,-1.3967,-1.3974,-1.3988,-1.3994,-1.4001,-1.3962,-1.3957,-1.3953,-1.3943,-1.3997,-1.3997,-1.404,-1.404,-1.404]}]]